GW4851 Weather Reports


time (UTC)temp
F
wind
direction
speed
knots
gust
knots
rain 1hr
in
rain 24hr
in
rain mn
in
humidity
%
barometer
mb
20260509201045 68 183 0.0 0.0 0.00 0.00 0.00 49 1009.6
20260509200544 68 183 0.0 0.0 0.00 0.00 0.00 48 1009.4
20260509200042 68 187 0.0 0.0 0.00 0.00 0.00 50 1009.5
20260509195537 69 264 0.0 0.0 0.00 0.00 0.00 49 1009.4
20260509195037 68 264 0.0 1.7 0.00 0.00 0.00 49 1009.5
20260509194532 68 229 0.9 1.7 0.00 0.00 0.00 51 1009.3
20260509194030 68 247 1.7 2.6 0.00 0.00 0.00 49 1009.5
20260509193530 69 236 0.9 2.6 0.00 0.00 0.00 48 1009.6
20260509193027 69 348 0.9 1.7 0.00 0.00 0.00 47 1009.5
20260509192524 68 356 0.9 1.7 0.00 0.00 0.00 48 1009.8
20260509192019 69 161 1.7 2.6 0.00 0.00 0.00 51 1009.5
20260509191513 68 277 0.0 0.0 0.00 0.00 0.00 49 1009.7
20260509191009 68 284 1.7 3.5 0.00 0.00 0.00 50 1009.6
20260509190506 68 289 2.6 2.6 0.00 0.00 0.00 52 1009.7
20260509190005 69 296 2.6 6.1 0.00 0.00 0.00 49 1009.7
20260509185501 68 234 2.6 3.5 0.00 0.00 0.00 50 1009.7
20260509184958 69 267 3.5 3.5 0.00 0.00 0.00 51 1009.6
20260509184456 69 257 2.6 5.2 0.00 0.00 0.00 50 1009.7
20260509183952 67 167 1.7 3.5 0.00 0.00 0.00 48 1009.8
20260509183447 67 294 4.3 6.1 0.00 0.00 0.00 52 1010.1
20260509182943 67 154 3.5 7.0 0.00 0.00 0.00 51 1009.8
20260509182439 68 125 0.9 3.5 0.00 0.00 0.00 50 1010.0
20260509181937 67 17 0.9 7.0 0.00 0.00 0.00 49 1010.2
20260509181435 68 154 2.6 2.6 0.00 0.00 0.00 52 1010.0
20260509180932 67 11 0.9 1.7 0.00 0.00 0.00 51 1010.3
20260509180427 66 265 1.7 3.5 0.00 0.00 0.00 53 1010.3
20260509175924 66 135 1.7 6.1 0.00 0.00 0.00 55 1010.4
20260509175421 66 214 0.0 1.7 0.00 0.00 0.00 54 1010.4
20260509174918 65 177 0.0 0.9 0.00 0.00 0.00 54 1010.6
20260509174414 67 136 0.9 3.5 0.00 0.00 0.00 56 1010.6
20260509173910 66 130 0.9 3.5 0.00 0.00 0.00 58 1010.3
20260509173409 67 202 1.7 2.6 0.00 0.00 0.00 58 1010.8
20260509172906 66 60 0.9 0.9 0.00 0.00 0.00 57 1010.9
20260509172403 64 60 0.9 0.9 0.00 0.00 0.00 58 1010.9
20260509171859 64 60 0.9 1.7 0.00 0.00 0.00 57 1010.9
20260509171355 63 123 0.9 2.6 0.00 0.00 0.00 58 1010.9
20260509170851 63 83 0.9 1.7 0.00 0.00 0.00 60 1011.2
20260509170348 62 120 0.9 1.7 0.00 0.00 0.00 61 1011.1
20260509165848 62 122 2.6 2.6 0.00 0.00 0.00 63 1011.4
20260509165342 61 126 1.7 2.6 0.00 0.00 0.00 65 1011.4
20260509164838 61 118 2.6 3.5 0.00 0.00 0.00 65 1011.5
20260509164335 61 85 2.6 6.1 0.00 0.00 0.00 64 1011.6
20260509163831 61 99 4.3 6.1 0.00 0.00 0.00 64 1011.5
20260509163328 61 98 2.6 2.6 0.00 0.00 0.00 65 1011.6
20260509162828 60 90 2.6 3.5 0.00 0.00 0.00 65 1011.7
20260509162325 60 105 2.6 2.6 0.00 0.00 0.00 68 1011.8
20260509161822 60 107 1.7 1.7 0.00 0.00 0.00 68 1011.8
20260509161319 60 79 1.7 2.6 0.00 0.00 0.00 68 1011.9
20260509160814 61 98 3.5 5.2 0.00 0.00 0.00 68 1011.7
20260509160310 61 82 1.7 3.5 0.00 0.00 0.00 68 1011.6
20260509155806 61 103 2.6 5.2 0.00 0.00 0.00 64 1011.5
20260509155306 62 131 1.7 2.6 0.00 0.00 0.00 63 1011.5
20260509154758 61 98 0.0 0.9 0.00 0.00 0.00 66 1011.7
20260509154256 60 129 1.7 2.6 0.00 0.00 0.00 67 1011.5
20260509153753 60 114 3.5 6.1 0.00 0.00 0.00 68 1011.6
20260509153248 60 75 2.6 2.6 0.00 0.00 0.00 67 1011.9
20260509152745 60 80 0.9 1.7 0.00 0.00 0.00 67 1011.7
20260509152242 60 81 1.7 1.7 0.00 0.00 0.00 66 1011.8
20260509151739 60 117 1.7 1.7 0.00 0.00 0.00 66 1011.8
20260509151235 60 151 1.7 3.5 0.00 0.00 0.00 66 1011.8
20260509150733 62 118 1.7 5.2 0.00 0.00 0.00 63 1011.7
20260509150232 62 111 1.7 5.2 0.00 0.00 0.00 63 1011.8
20260509145729 62 99 1.7 1.7 0.00 0.00 0.00 62 1011.7
20260509145228 61 109 0.9 3.5 0.00 0.00 0.00 66 1011.8
20260509144725 62 122 3.5 5.2 0.00 0.00 0.00 64 1011.7
20260509144222 62 138 5.2 7.0 0.00 0.00 0.00 66 1011.7
20260509143719 60 90 0.0 2.6 0.00 0.00 0.00 68 1012.0
20260509143217 60 81 0.0 1.7 0.00 0.00 0.00 67 1011.6
20260509142712 60 44 1.7 2.6 0.00 0.00 0.00 69 1011.8
20260509142209 59 103 1.7 3.5 0.00 0.00 0.00 68 1011.9
20260509141704 58 125 1.7 2.6 0.00 0.00 0.00 70 1011.9
20260509141202 60 123 0.9 0.9 0.00 0.00 0.00 67 1012.2
20260509140658 59 123 0.0 0.9 0.00 0.00 0.00 66 1012.0
20260509140156 59 123 1.7 2.6 0.00 0.00 0.00 66 1012.2
20260509135653 58 100 0.9 0.9 0.00 0.00 0.00 69 1012.4
20260509135151 56 125 1.7 1.7 0.00 0.00 0.00 72 1012.3
20260509134647 56 80 1.7 2.6 0.00 0.00 0.00 69 1012.3
20260509134145 56 41 0.0 0.0 0.00 0.00 0.00 73 1012.4
20260509133642 55 4 0.0 0.0 0.00 0.00 0.00 71 1012.2
20260509133139 55 4 0.0 0.9 0.00 0.00 0.00 74 1012.0
20260509132637 55 11 0.9 1.7 0.00 0.00 0.00 72 1011.9
20260509132135 55 42 0.9 0.9 0.00 0.00 0.00 73 1012.0
20260509131631 55 344 2.6 3.5 0.00 0.00 0.00 72 1012.0
20260509131128 55 74 0.0 0.9 0.00 0.00 0.00 74 1011.9
20260509130624 54 49 0.0 1.7 0.00 0.00 0.00 74 1011.8
20260509130121 54 49 0.9 1.7 0.00 0.00 0.00 75 1011.8
20260509125617 54 48 0.9 1.7 0.00 0.00 0.00 76 1011.7
20260509125114 54 109 0.9 1.7 0.00 0.00 0.00 79 1011.9
20260509124610 54 110 0.0 0.9 0.00 0.00 0.00 75 1011.9
20260509124108 54 110 0.9 1.7 0.00 0.00 0.00 77 1012.2
20260509123606 54 26 0.0 0.9 0.00 0.00 0.00 75 1012.3
20260509123102 55 26 0.0 0.0 0.00 0.00 0.00 73 1012.2
20260509122558 55 26 0.0 0.0 0.00 0.00 0.00 69 1011.9
20260509122056 55 26 0.0 0.0 0.00 0.00 0.00 71 1012.2
20260509121552 55 26 0.0 0.0 0.00 0.00 0.00 67 1012.0
20260509121049 55 26 0.0 0.0 0.00 0.00 0.00 66 1012.3
20260509120547 54 353 0.0 0.9 0.00 0.00 0.00 68 1012.0
20260509120046 54 353 0.0 0.0 0.00 0.00 0.00 70 1011.9
20260509115542 53 353 0.0 0.0 0.00 0.00 0.00 74 1012.0
20260509115040 53 353 0.0 0.0 0.00 0.00 0.00 71 1012.0
20260509114538 54 353 0.0 0.0 0.00 0.00 0.00 68 1012.3
20260509114037 53 353 0.0 0.9 0.00 0.00 0.00 68 1012.0
20260509113534 53 352 0.0 0.0 0.00 0.00 0.00 70 1012.0
20260509113032 54 352 0.0 0.0 0.00 0.00 0.00 65 1011.8
20260509112528 54 352 0.0 0.0 0.00 0.00 0.00 67 1011.7
20260509112025 54 352 0.0 0.0 0.00 0.00 0.00 67 1011.7
20260509111522 53 352 0.0 0.0 0.00 0.00 0.00 65 1011.7
20260509111019 53 352 0.0 0.0 0.00 0.00 0.00 65 1011.7
20260509110516 53 79 0.0 0.0 0.00 0.00 0.00 71 1011.7
20260509110013 53 79 0.0 0.0 0.00 0.00 0.00 71 1011.7
20260509105512 53 79 0.0 0.0 0.00 0.00 0.00 71 1011.4
20260509105009 53 79 0.0 0.9 0.00 0.00 0.00 72 1011.6
20260509104505 53 79 0.0 0.0 0.00 0.00 0.00 66 1011.6
20260509104002 53 79 0.0 0.0 0.00 0.00 0.00 67 1011.4
20260509103500 53 259 0.0 0.9 0.00 0.00 0.00 67 1011.4
20260509102958 53 259 0.0 0.9 0.00 0.00 0.00 67 1011.3
20260509102455 53 258 0.9 0.9 0.00 0.00 0.00 66 1011.2
20260509101951 53 258 0.9 1.7 0.00 0.00 0.00 66 1011.1
20260509101448 52 258 0.9 1.7 0.00 0.00 0.00 70 1011.1
20260509100945 51 259 0.9 0.9 0.00 0.00 0.00 74 1011.1
20260509100442 52 258 0.9 0.9 0.00 0.00 0.00 75 1011.1
20260509095939 54 258 1.7 1.7 0.00 0.00 0.00 68 1011.1
20260509095436 0 0.0 0.0 0.00 0.00 0.00 1011.0
20260509094933 0 0.0 0.0 0.00 0.00 0.00 1011.2
20260509094429 0 0.0 0.0 0.00 0.00 0.00 1011.3
20260509093927 0 0.0 0.0 0.00 0.00 0.00 1011.2
20260509093424 0 0.0 0.0 0.00 0.00 0.00 1011.2
20260509092923 54 273 0.9 0.9 0.00 0.00 0.00 65 1011.4
20260509092420 54 273 0.9 0.9 0.00 0.00 0.00 65 1011.3
20260509091919 53 280 0.9 0.9 0.00 0.00 0.00 67 1011.3
20260509091415 53 280 0.9 0.9 0.00 0.00 0.00 67 1011.2
20260509090912 53 280 0.9 0.9 0.00 0.00 0.00 67 1011.2
20260509090409 53 287 0.0 0.9 0.00 0.00 0.00 66 1011.3
20260509085907 53 286 1.7 1.7 0.00 0.00 0.00 66 1011.2
20260509085404 53 259 0.9 0.9 0.00 0.00 0.00 68 1011.3
20260509084900 52 259 0.0 0.9 0.00 0.00 0.00 69 1011.4
20260509084357 52 259 0.0 0.9 0.00 0.00 0.00 69 1011.5
20260509083855 53 259 0.0 0.9 0.00 0.00 0.00 68 1011.4
20260509083351 53 259 0.9 0.9 0.00 0.00 0.00 66 1011.4
20260509082848 0 0.0 0.0 0.00 0.00 0.00 1011.4
20260509082345 0 0.0 0.0 0.00 0.00 0.00 1011.4
20260509081842 53 259 0.0 0.0 0.00 0.00 0.00 66 1011.5
20260509081339 53 259 0.0 0.0 0.00 0.00 0.00 66 1011.4
20260509080837 53 259 0.0 0.0 0.00 0.00 0.00 64 1011.5
20260509080335 0 0.0 0.0 0.00 0.00 0.00 1011.5
20260509075833 0 0.0 0.0 0.00 0.00 0.00 1011.8
20260509075330 0 0.0 0.0 0.00 0.00 0.00 1011.6
20260509074827 0 0.0 0.0 0.00 0.00 0.00 1011.7
20260509074324 0 0.0 0.0 0.00 0.00 0.00 1011.7
20260509073820 0 0.0 0.0 0.00 0.00 0.00 1011.8
20260509073317 0 0.0 0.0 0.00 0.00 0.00 1012.0
20260509072814 0 0.0 0.0 0.00 0.00 0.00 1011.8
20260509072310 0 0.0 0.0 0.00 0.00 0.00 1011.8
20260509071807 0 0.0 0.0 0.00 0.00 0.00 1011.8
20260509071304 0 0.0 0.0 0.00 0.00 0.00 1011.7
20260509070801 0 0.0 0.0 0.00 0.00 0.00 1011.7
20260509070257 53 273 1.7 2.6 0.00 0.00 0.00 67 1011.7
20260509065754 53 273 1.7 2.6 0.00 0.00 0.00 67 1011.9
20260509065250 0 0.0 0.0 0.00 0.00 0.00 1011.8
20260509064746 0 0.0 0.0 0.00 0.00 0.00 1011.8
20260509064244 0 0.0 0.0 0.00 0.00 0.00 1011.9
20260509063741 0 0.0 0.0 0.00 0.00 0.00 1012.2
20260509063237 53 251 1.7 1.7 0.00 0.00 0.00 66 1012.2
20260509062735 53 251 1.7 1.7 0.00 0.00 0.00 66 1011.9
20260509062232 53 251 0.9 0.9 0.00 0.00 0.00 66 1012.3
20260509061729 53 251 0.9 0.9 0.00 0.00 0.00 66 1012.2
20260509061227 53 251 0.9 1.7 0.00 0.00 0.00 63 1012.3
20260509060724 0 0.0 0.0 0.00 0.00 0.00 1012.3
20260509060220 0 0.0 0.0 0.00 0.00 0.00 1012.2
20260509055716 0 0.0 0.0 0.00 0.00 0.00 1012.3
20260509055212 0 0.0 0.0 0.00 0.00 0.00 1012.3
20260509054709 54 251 1.7 1.7 0.00 0.00 0.00 64 1012.5
20260509054206 54 251 1.7 1.7 0.00 0.00 0.00 64 1012.6
20260509053704 54 257 1.7 1.7 0.00 0.00 0.00 63 1012.3
20260509053201 0 0.0 0.0 0.00 0.00 0.00 1012.2
20260509052659 0 0.0 0.0 0.00 0.00 0.00 1012.4
20260509052156 53 271 0.0 0.9 0.00 0.00 0.00 66 1012.4
20260509051654 53 271 0.0 0.9 0.00 0.00 0.00 66 1012.5
20260509051151 54 271 1.7 1.7 0.00 0.00 0.00 63 1012.5
20260509050648 53 309 0.9 1.7 0.00 0.00 0.00 66 1012.5
20260509050144 53 309 0.9 1.7 0.00 0.00 0.00 66 1012.5
20260509045642 53 268 1.7 1.7 0.00 0.00 0.00 66 1012.4
20260509045138 53 232 2.6 3.5 0.00 0.00 0.00 64 1012.4
20260509044636 52 259 1.7 1.7 0.00 0.00 0.00 67 1012.5
20260509044133 52 259 1.7 1.7 0.00 0.00 0.00 67 1012.3
20260509043629 53 261 0.9 0.9 0.00 0.00 0.00 68 1012.2
20260509043125 53 261 0.9 1.7 0.00 0.00 0.00 67 1012.6
20260509042622 0 0.0 0.0 0.00 0.00 0.00 1012.3
20260509042118 53 266 2.6 2.6 0.00 0.00 0.00 67 1012.3
20260509041615 53 266 2.6 2.6 0.00 0.00 0.00 67 1012.5
20260509041112 52 274 1.7 2.6 0.00 0.00 0.00 68 1012.4
20260509040611 52 274 1.7 2.6 0.00 0.00 0.00 68 1012.5
20260509040107 52 246 0.9 1.7 0.00 0.00 0.00 68 1012.5
20260509035604 53 245 0.9 1.7 0.00 0.00 0.00 68 1012.4
20260509035100 53 248 0.0 0.9 0.00 0.00 0.00 67 1012.4
20260509034559 55 278 3.5 3.5 0.00 0.00 0.00 60 1012.6
20260509034055 55 278 3.5 3.5 0.00 0.00 0.00 60 1012.5
20260509033552 54 319 1.7 2.6 0.00 0.00 0.00 62 1012.4
20260509033049 53 324 0.9 0.9 0.00 0.00 0.00 67 1012.4
20260509032547 53 324 0.9 0.9 0.00 0.00 0.00 67 1012.4
20260509032043 54 240 0.9 1.7 0.00 0.00 0.00 64 1012.5
20260509031541 54 301 0.9 1.7 0.00 0.00 0.00 65 1012.7
20260509031038 54 300 0.9 0.9 0.00 0.00 0.00 65 1012.5
20260509030537 53 260 0.9 1.7 0.00 0.00 0.00 64 1012.6
20260509030033 53 297 0.0 0.9 0.00 0.00 0.00 70 1012.7
20260509025529 53 170 0.9 1.7 0.00 0.00 0.00 69 1012.6
20260509025025 54 170 0.0 0.9 0.00 0.00 0.00 66 1012.5
20260509024521 55 170 0.0 0.0 0.00 0.00 0.00 61 1012.7
20260509024017 54 170 1.7 1.7 0.00 0.00 0.00 66 1012.8
20260509023515 53 170 0.9 1.7 0.00 0.00 0.00 70 1012.7
20260509023012 53 170 0.9 0.9 0.00 0.00 0.00 70 1012.8
20260509022508 56 170 1.7 1.7 0.00 0.00 0.00 61 1012.8
20260509022006 55 320 0.9 0.9 0.00 0.00 0.00 60 1012.9
20260509021503 55 300 0.9 0.9 0.00 0.00 0.00 58 1012.9
20260509020959 55 296 0.9 1.7 0.00 0.00 0.00 59 1012.8
20260509020458 55 259 0.0 0.0 0.00 0.00 0.00 60 1012.9
20260509015954 55 259 0.0 0.9 0.00 0.00 0.00 61 1012.4
20260509015453 55 259 0.0 0.9 0.00 0.00 0.00 59 1012.7
20260509014950 56 259 0.0 0.9 0.00 0.00 0.00 57 1012.6
20260509014447 57 259 0.9 1.7 0.00 0.00 0.00 55 1012.7
20260509013943 56 291 1.7 2.6 0.00 0.00 0.00 55 1012.8
20260509013440 56 267 0.9 0.9 0.00 0.00 0.00 55 1012.6
20260509012936 56 267 1.7 1.7 0.00 0.00 0.00 56 1012.5
20260509012432 56 267 0.9 0.9 0.00 0.00 0.00 57 1012.5
20260509011929 56 289 0.9 0.9 0.00 0.00 0.00 56 1012.5
20260509011427 56 31 0.0 0.9 0.00 0.00 0.00 57 1012.4
20260509010925 56 5 3.5 3.5 0.00 0.00 0.00 56 1012.4
20260509010422 56 343 2.6 3.5 0.00 0.00 0.00 57 1012.3
20260509005918 57 344 1.7 1.7 0.00 0.00 0.00 54 1012.4
20260509005417 57 343 0.0 0.0 0.00 0.00 0.00 55 1012.4
20260509004917 58 343 0.0 0.0 0.00 0.00 0.00 54 1012.5
20260509004413 58 343 0.0 0.0 0.00 0.00 0.00 52 1012.3
20260509003911 58 343 0.0 0.0 0.00 0.00 0.00 52 1012.3
20260509003409 58 343 0.0 0.9 0.00 0.00 0.00 53 1012.4
20260509002905 58 344 2.6 2.6 0.00 0.00 0.00 53 1012.4
20260509002403 59 335 0.0 0.9 0.00 0.00 0.00 52 1012.5
20260509001901 60 21 1.7 1.7 0.00 0.00 0.00 50 1012.5
20260509001356 0 0.0 0.0 0.00 0.00 0.00 1012.3
20260509000854 0 0.0 0.0 0.00 0.00 0.00 1012.2
20260509000352 0 0.0 0.0 0.00 0.00 0.00 1012.2
20260508235848 64 19 1.7 1.7 0.00 0.00 0.00 44 1012.0
20260508235345 64 19 1.7 1.7 0.00 0.00 0.00 44 1011.8
20260508234842 64 19 1.7 1.7 0.00 0.00 0.00 43 1012.0
20260508234338 66 19 0.0 0.0 0.00 0.00 0.00 38 1011.8
20260508233837 66 19 0.0 0.0 0.00 0.00 0.00 38 1011.9
20260508233336 67 19 0.0 0.0 0.00 0.00 0.00 36 1011.8
20260508232832 67 19 0.0 0.0 0.00 0.00 0.00 36 1011.6
20260508232329 67 19 0.0 0.9 0.00 0.00 0.00 35 1011.7
20260508231827 68 19 1.7 1.7 0.00 0.00 0.00 34 1011.5
20260508231323 68 277 0.9 0.9 0.00 0.00 0.00 35 1011.6
20260508230820 67 277 1.7 2.6 0.00 0.00 0.00 34 1011.6
20260508230316 67 283 3.5 5.2 0.00 0.00 0.00 33 1011.6
20260508225814 68 322 3.5 3.5 0.00 0.00 0.00 34 1011.7
20260508225310 68 320 7.0 11.3 0.00 0.00 0.00 32 1011.5
20260508224808 68 282 5.2 7.0 0.00 0.00 0.00 33 1011.8
20260508224306 69 257 3.5 5.2 0.00 0.00 0.00 34 1011.7
20260508223803 69 281 3.5 3.5 0.00 0.00 0.00 34 1011.7
20260508223300 69 281 0.9 0.9 0.00 0.00 0.00 35 1011.9
20260508222758 69 320 5.2 6.1 0.00 0.00 0.00 33 1011.7
20260508222255 69 352 5.2 7.8 0.00 0.00 0.00 32 1011.7
20260508221751 68 274 1.7 2.6 0.00 0.00 0.00 35 1011.8
20260508221247 67 311 5.2 6.1 0.00 0.00 0.00 34 1011.7
20260508220743 67 309 1.7 3.5 0.00 0.00 0.00 35 1011.8
20260508220240 67 313 2.6 3.5 0.00 0.00 0.00 35 1011.9
20260508215736 67 338 5.2 6.1 0.00 0.00 0.00 34 1011.7
20260508215233 69 264 2.6 3.5 0.00 0.00 0.00 33 1011.9
20260508214730 68 326 4.3 6.1 0.00 0.00 0.00 34 1011.7
20260508214228 68 326 4.3 6.1 0.00 0.00 0.00 34 1012.0
20260508213724 69 36 2.6 3.5 0.00 0.00 0.00 33 1011.8
20260508213220 68 320 3.5 5.2 0.00 0.00 0.00 33 1012.2
20260508212717 69 285 3.5 5.2 0.00 0.00 0.00 34 1012.0
20260508212214 66 319 4.3 6.1 0.00 0.00 0.00 34 1012.2
20260508211709 68 264 7.8 8.7 0.00 0.00 0.00 32 1011.8
20260508211205 69 313 7.8 8.7 0.00 0.00 0.00 32 1012.2
20260508210703 69 211 3.5 3.5 0.00 0.00 0.00 35 1012.3
20260508210200 69 247 6.1 7.0 0.00 0.00 0.00 31 1012.3
20260508205656 68 324 2.6 6.1 0.00 0.00 0.00 34 1012.4
20260508205153 69 278 8.7 11.3 0.00 0.00 0.00 32 1012.5
20260508204649 70 320 7.0 7.8 0.00 0.00 0.00 33 1012.4
20260508204145 69 225 2.6 6.1 0.00 0.00 0.00 33 1012.3
20260508203642 70 66 1.7 1.7 0.00 0.00 0.00 32 1012.5
20260508203138 67 293 2.6 7.0 0.00 0.00 0.00 34 1012.7
20260508202634 67 228 3.5 5.2 0.00 0.00 0.00 35 1012.7
20260508202131 67 354 1.7 5.2 0.00 0.00 0.00 34 1012.6
20260508201628 67 285 3.5 7.8 0.00 0.00 0.00 34 1012.7